Time,TemperatureF,DewpointF,PressureIn,WindDirection,WindDirectionDegrees,WindSpeedMPH,WindSpeedGustMPH,Humidity,HourlyPrecipIn,Conditions,Clouds,dailyrainin,SolarRadiationWatts/m^2,SoftwareType,DateUTC
2013-12-20 00:22:00,35.0,32.0,-100.00,WNW,300,5.0,6.0,89,0.00,,,0.00,0.000000,,2013-12-20 07:22:00,
2013-12-20 00:32:00,35.0,32.0,-100.00,WNW,300,5.0,6.0,89,0.00,,,0.00,0.000000,,2013-12-20 07:32:00,
2013-12-20 00:42:00,35.0,32.0,-100.00,WNW,300,5.0,6.0,89,0.00,,,0.00,0.000000,,2013-12-20 07:42:00,
2013-12-20 00:52:00,35.0,32.0,-100.00,WNW,300,5.0,6.0,89,0.00,,,0.00,0.000000,,2013-12-20 07:52:00,
2013-12-20 01:22:00,34.0,31.0,-100.00,North,-999,0.0,9.0,90,0.00,,,0.00,0.000000,,2013-12-20 08:22:00,
2013-12-20 01:32:00,34.0,31.0,-100.00,North,-999,0.0,9.0,90,0.00,,,0.00,0.000000,,2013-12-20 08:32:00,
2013-12-20 01:42:00,34.0,31.0,-100.00,North,-999,0.0,9.0,90,0.00,,,0.00,0.000000,,2013-12-20 08:42:00,
2013-12-20 01:52:00,34.0,31.0,-100.00,North,-999,0.0,9.0,90,0.00,,,0.00,0.000000,,2013-12-20 08:52:00,
2013-12-20 02:22:00,33.0,29.0,-100.00,East,91,2.0,7.0,86,0.00,,,0.00,0.000000,,2013-12-20 09:22:00,
2013-12-20 02:33:00,33.0,29.0,-100.00,East,91,2.0,7.0,86,0.00,,,0.00,0.000000,,2013-12-20 09:33:00,
2013-12-20 02:43:00,33.0,29.0,-100.00,East,91,2.0,7.0,86,0.00,,,0.00,0.000000,,2013-12-20 09:43:00,
2013-12-20 02:53:00,33.0,29.0,-100.00,East,91,2.0,7.0,86,0.00,,,0.00,0.000000,,2013-12-20 09:53:00,
2013-12-20 03:23:00,32.0,29.0,-100.00,East,94,3.0,4.0,87,0.00,,,0.00,0.000000,,2013-12-20 10:23:00,
2013-12-20 03:33:00,32.0,29.0,-100.00,East,94,3.0,4.0,87,0.00,,,0.00,0.000000,,2013-12-20 10:33:00,
2013-12-20 03:42:00,32.0,29.0,-100.00,East,94,3.0,4.0,87,0.00,,,0.00,0.000000,,2013-12-20 10:42:00,
2013-12-20 03:53:00,32.0,29.0,-100.00,East,94,3.0,4.0,87,0.00,,,0.00,0.000000,,2013-12-20 10:53:00,
2013-12-20 04:22:00,32.0,29.0,-100.00,East,95,4.0,8.0,87,0.00,,,0.00,0.000000,,2013-12-20 11:22:00,
2013-12-20 04:33:00,32.0,29.0,-100.00,East,95,4.0,8.0,87,0.00,,,0.00,0.000000,,2013-12-20 11:33:00,
2013-12-20 04:42:00,32.0,29.0,-100.00,East,95,4.0,8.0,87,0.00,,,0.00,0.000000,,2013-12-20 11:42:00,
2013-12-20 04:52:00,32.0,29.0,-100.00,East,95,4.0,8.0,87,0.00,,,0.00,0.000000,,2013-12-20 11:52:00,
2013-12-20 05:23:00,32.0,29.0,-100.00,SW,236,1.0,6.0,89,0.00,,,0.00,0.000000,,2013-12-20 12:23:00,
2013-12-20 05:32:00,32.0,29.0,-100.00,SW,236,1.0,6.0,89,0.00,,,0.00,0.000000,,2013-12-20 12:32:00,
2013-12-20 05:42:00,32.0,29.0,-100.00,SW,236,1.0,6.0,89,0.00,,,0.00,0.000000,,2013-12-20 12:42:00,
2013-12-20 05:52:00,32.0,29.0,-100.00,SW,236,1.0,6.0,89,0.00,,,0.00,0.000000,,2013-12-20 12:52:00,
2013-12-20 06:22:00,32.0,29.0,-100.00,South,177,3.0,5.0,88,0.00,,,0.00,0.000000,,2013-12-20 13:22:00,
2013-12-20 06:32:00,32.0,29.0,-100.00,South,177,3.0,5.0,88,0.00,,,0.00,0.000000,,2013-12-20 13:32:00,
2013-12-20 06:42:00,32.0,29.0,-100.00,South,177,3.0,5.0,88,0.00,,,0.00,0.000000,,2013-12-20 13:42:00,
2013-12-20 06:53:00,32.0,29.0,-100.00,South,177,3.0,5.0,88,0.00,,,0.00,0.000000,,2013-12-20 13:53:00,
2013-12-20 07:22:00,34.0,32.0,-100.00,East,101,3.0,8.0,94,0.00,,,0.00,0.000000,,2013-12-20 14:22:00,
2013-12-20 07:32:00,34.0,32.0,-100.00,East,101,3.0,8.0,94,0.00,,,0.00,0.000000,,2013-12-20 14:32:00,
2013-12-20 07:42:00,34.0,32.0,-100.00,East,101,3.0,8.0,94,0.00,,,0.00,0.000000,,2013-12-20 14:42:00,
2013-12-20 07:52:00,34.0,32.0,-100.00,East,101,3.0,8.0,94,0.00,,,0.00,0.000000,,2013-12-20 14:52:00,
2013-12-20 08:44:00,32.0,31.0,-100.00,East,84,3.0,5.0,95,0.00,,,0.00,0.000000,,2013-12-20 15:44:00,
2013-12-20 08:53:00,32.0,31.0,-100.00,East,84,3.0,5.0,95,0.00,,,0.00,0.000000,,2013-12-20 15:53:00,
2013-12-20 09:23:00,32.0,31.0,-100.00,North,-999,0.0,5.0,97,0.00,,,0.00,3.000000,,2013-12-20 16:23:00,
2013-12-20 09:33:00,32.0,31.0,-100.00,North,-999,0.0,5.0,97,0.00,,,0.00,3.000000,,2013-12-20 16:33:00,
2013-12-20 09:43:00,32.0,31.0,-100.00,North,-999,0.0,5.0,97,0.00,,,0.00,3.000000,,2013-12-20 16:43:00,
2013-12-20 09:53:00,32.0,31.0,-100.00,North,-999,0.0,5.0,97,0.00,,,0.00,3.000000,,2013-12-20 16:53:00,
2013-12-20 10:22:00,34.0,33.0,-100.00,NW,320,1.0,5.0,96,0.00,,,0.00,30.000000,,2013-12-20 17:22:00,
2013-12-20 10:32:00,34.0,33.0,-100.00,NW,320,1.0,5.0,96,0.00,,,0.00,30.000000,,2013-12-20 17:32:00,
2013-12-20 10:42:00,34.0,33.0,-100.00,NW,320,1.0,5.0,96,0.00,,,0.00,30.000000,,2013-12-20 17:42:00,
2013-12-20 10:52:00,34.0,33.0,-100.00,NW,320,1.0,5.0,96,0.00,,,0.00,30.000000,,2013-12-20 17:52:00,
2013-12-20 11:22:00,34.0,32.0,-100.00,North,-999,0.0,3.0,94,0.00,,,0.00,72.000000,,2013-12-20 18:22:00,
2013-12-20 11:32:00,34.0,32.0,-100.00,North,-999,0.0,3.0,94,0.00,,,0.00,72.000000,,2013-12-20 18:32:00,
2013-12-20 11:42:00,34.0,32.0,-100.00,North,-999,0.0,3.0,94,0.00,,,0.00,72.000000,,2013-12-20 18:42:00,
2013-12-20 11:52:00,34.0,32.0,-100.00,North,-999,0.0,3.0,94,0.00,,,0.00,72.000000,,2013-12-20 18:52:00,
2013-12-20 12:22:00,33.0,31.0,-100.00,North,-999,0.0,3.0,93,0.02,,,0.02,98.000000,,2013-12-20 19:22:00,
2013-12-20 12:32:00,33.0,31.0,-100.00,North,-999,0.0,3.0,93,0.02,,,0.02,98.000000,,2013-12-20 19:32:00,
2013-12-20 12:42:00,33.0,31.0,-100.00,North,-999,0.0,3.0,93,0.02,,,0.02,98.000000,,2013-12-20 19:42:00,
2013-12-20 12:52:00,33.0,31.0,-100.00,North,-999,0.0,3.0,93,0.02,,,0.02,98.000000,,2013-12-20 19:52:00,
2013-12-20 13:22:00,34.0,32.0,-100.00,North,2,1.0,1.0,92,0.02,,,0.04,109.000000,,2013-12-20 20:22:00,
2013-12-20 13:32:00,34.0,32.0,-100.00,North,2,1.0,1.0,92,0.02,,,0.04,109.000000,,2013-12-20 20:32:00,
2013-12-20 13:42:00,34.0,32.0,-100.00,North,2,1.0,1.0,92,0.02,,,0.04,109.000000,,2013-12-20 20:42:00,
2013-12-20 13:52:00,34.0,32.0,-100.00,North,2,1.0,1.0,92,0.02,,,0.04,109.000000,,2013-12-20 20:52:00,
2013-12-20 14:22:00,36.0,34.0,-100.00,North,-999,0.0,3.0,92,0.04,,,0.08,144.000000,,2013-12-20 21:22:00,
2013-12-20 14:33:00,36.0,34.0,-100.00,North,-999,0.0,3.0,92,0.04,,,0.08,144.000000,,2013-12-20 21:33:00,
2013-12-20 14:43:00,36.0,34.0,-100.00,North,-999,0.0,3.0,92,0.04,,,0.08,144.000000,,2013-12-20 21:43:00,
2013-12-20 14:53:00,36.0,34.0,-100.00,North,-999,0.0,3.0,92,0.04,,,0.08,144.000000,,2013-12-20 21:53:00,
2013-12-20 15:23:00,37.0,34.0,-100.00,NW,315,1.0,3.0,89,0.03,,,0.11,131.000000,,2013-12-20 22:23:00,
2013-12-20 15:33:00,37.0,34.0,-100.00,NW,315,1.0,3.0,89,0.03,,,0.11,131.000000,,2013-12-20 22:33:00,
2013-12-20 15:42:00,37.0,34.0,-100.00,NW,315,1.0,3.0,89,0.03,,,0.11,131.000000,,2013-12-20 22:42:00,
2013-12-20 15:52:00,37.0,34.0,-100.00,NW,315,1.0,3.0,89,0.03,,,0.11,131.000000,,2013-12-20 22:52:00,
2013-12-20 16:22:00,37.0,35.0,-100.00,North,-999,0.0,2.0,93,0.02,,,0.13,157.000000,,2013-12-20 23:22:00,
2013-12-20 16:33:00,37.0,35.0,-100.00,North,-999,0.0,2.0,93,0.02,,,0.13,157.000000,,2013-12-20 23:33:00,
2013-12-20 16:42:00,37.0,35.0,-100.00,North,-999,0.0,2.0,93,0.02,,,0.13,157.000000,,2013-12-20 23:42:00,
2013-12-20 16:53:00,37.0,35.0,-100.00,North,-999,0.0,2.0,93,0.02,,,0.13,157.000000,,2013-12-20 23:53:00,
2013-12-20 17:22:00,36.0,35.0,-100.00,North,-999,0.0,3.0,97,0.01,,,0.14,99.000000,,2013-12-21 00:22:00,
2013-12-20 17:32:00,36.0,35.0,-100.00,North,-999,0.0,3.0,97,0.01,,,0.14,99.000000,,2013-12-21 00:32:00,
2013-12-20 17:42:00,36.0,35.0,-100.00,North,-999,0.0,3.0,97,0.01,,,0.14,99.000000,,2013-12-21 00:42:00,
2013-12-20 17:52:00,36.0,35.0,-100.00,North,-999,0.0,3.0,97,0.01,,,0.14,99.000000,,2013-12-21 00:52:00,
2013-12-20 18:22:00,33.0,33.0,-100.00,ESE,120,1.0,1.0,99,0.00,,,0.14,30.000000,,2013-12-21 01:22:00,
2013-12-20 18:32:00,33.0,33.0,-100.00,ESE,120,1.0,1.0,99,0.00,,,0.14,30.000000,,2013-12-21 01:32:00,
2013-12-20 18:42:00,33.0,33.0,-100.00,ESE,120,1.0,1.0,99,0.00,,,0.14,30.000000,,2013-12-21 01:42:00,
2013-12-20 18:52:00,33.0,33.0,-100.00,ESE,120,1.0,1.0,99,0.00,,,0.14,30.000000,,2013-12-21 01:52:00,
2013-12-20 19:21:00,33.0,33.0,-100.00,North,-999,0.0,2.0,99,0.00,,,0.14,0.000000,,2013-12-21 02:21:00,
2013-12-20 19:32:00,33.0,33.0,-100.00,North,-999,0.0,2.0,99,0.00,,,0.14,0.000000,,2013-12-21 02:32:00,
2013-12-20 19:42:00,33.0,33.0,-100.00,North,-999,0.0,2.0,99,0.00,,,0.14,0.000000,,2013-12-21 02:42:00,
2013-12-20 19:52:00,33.0,33.0,-100.00,North,-999,0.0,2.0,99,0.00,,,0.14,0.000000,,2013-12-21 02:52:00,
2013-12-20 20:21:00,32.0,32.0,-100.00,North,-999,0.0,3.0,99,0.00,,,0.14,0.000000,,2013-12-21 03:21:00,
2013-12-20 20:33:00,32.0,32.0,-100.00,North,-999,0.0,3.0,99,0.00,,,0.14,0.000000,,2013-12-21 03:33:00,
2013-12-20 20:43:00,32.0,32.0,-100.00,North,-999,0.0,3.0,99,0.00,,,0.14,0.000000,,2013-12-21 03:43:00,
2013-12-20 20:53:00,32.0,32.0,-100.00,North,-999,0.0,3.0,99,0.00,,,0.14,0.000000,,2013-12-21 03:53:00,
2013-12-20 21:23:00,32.0,32.0,-100.00,NW,324,4.0,4.0,99,0.00,,,0.14,0.000000,,2013-12-21 04:23:00,
2013-12-20 21:32:00,32.0,32.0,-100.00,NW,324,4.0,4.0,99,0.00,,,0.14,0.000000,,2013-12-21 04:32:00,
2013-12-20 21:42:00,32.0,32.0,-100.00,NW,324,4.0,4.0,99,0.00,,,0.14,0.000000,,2013-12-21 04:42:00,
2013-12-20 21:52:00,32.0,32.0,-100.00,NW,324,4.0,4.0,99,0.00,,,0.14,0.000000,,2013-12-21 04:52:00,
2013-12-20 22:22:00,29.0,29.0,-100.00,NW,309,1.0,6.0,99,0.00,,,0.14,0.000000,,2013-12-21 05:22:00,
2013-12-20 22:32:00,29.0,29.0,-100.00,NW,309,1.0,6.0,99,0.00,,,0.14,0.000000,,2013-12-21 05:32:00,
2013-12-20 22:42:00,29.0,29.0,-100.00,NW,309,1.0,6.0,99,0.00,,,0.14,0.000000,,2013-12-21 05:42:00,
2013-12-20 22:52:00,29.0,29.0,-100.00,NW,309,1.0,6.0,99,0.00,,,0.14,0.000000,,2013-12-21 05:52:00,
2013-12-20 23:21:00,29.0,29.0,-100.00,West,276,1.0,5.0,99,0.00,,,0.14,0.000000,,2013-12-21 06:21:00,
2013-12-20 23:32:00,29.0,29.0,-100.00,West,276,1.0,5.0,99,0.00,,,0.14,0.000000,,2013-12-21 06:32:00,
2013-12-20 23:42:00,29.0,29.0,-100.00,West,276,1.0,5.0,99,0.00,,,0.14,0.000000,,2013-12-21 06:42:00,
2013-12-20 23:52:00,29.0,29.0,-100.00,West,276,1.0,5.0,99,0.00,,,0.14,0.000000,,2013-12-21 06:52:00,